owner,sensor,date,latitude,longitude,sea_surface_height_above_sea_level,qcFlag 
TCOON,ioos:station:TCOON:068:1,2015-08-01T00:12:00Z,27.2970,-97.4049,4.101,1111122 
TCOON,ioos:station:TCOON:068:1,2015-08-01T01:24:00Z,27.2970,-97.4049,4.097,1111122 
TCOON,ioos:station:TCOON:068:1,2015-08-01T02:48:00Z,27.2970,-97.4049,4.109,1111122 
TCOON,ioos:station:TCOON:068:1,2015-08-01T03:18:00Z,27.2970,-97.4049,4.114,1111122 
TCOON,ioos:station:TCOON:068:1,2015-08-01T04:42:00Z,27.2970,-97.4049,4.109,1111122 
TCOON,ioos:station:TCOON:068:1,2015-08-01T05:24:00Z,27.2970,-97.4049,4.108,1111122 
TCOON,ioos:station:TCOON:068:1,2015-08-01T06:24:00Z,27.2970,-97.4049,4.117,1111122 
TCOON,ioos:station:TCOON:068:1,2015-08-01T07:42:00Z,27.2970,-97.4049,4.109,1111122 
TCOON,ioos:station:TCOON:068:1,2015-08-01T08:18:00Z,27.2970,-97.4049,4.122,1111122 
TCOON,ioos:station:TCOON:068:1,2015-08-01T09:24:00Z,27.2970,-97.4049,4.118,1111122 
TCOON,ioos:station:TCOON:068:1,2015-08-01T10:24:00Z,27.2970,-97.4049,4.114,1111122 
TCOON,ioos:station:TCOON:068:1,2015-08-01T12:30:00Z,27.2970,-97.4049,4.112,1111122 
TCOON,ioos:station:TCOON:068:1,2015-08-01T13:18:00Z,27.2970,-97.4049,4.11,1111122 
TCOON,ioos:station:TCOON:068:1,2015-08-01T14:18:00Z,27.2970,-97.4049,4.111,1111122 
TCOON,ioos:station:TCOON:068:1,2015-08-01T15:18:00Z,27.2970,-97.4049,4.116,1111122 
TCOON,ioos:station:TCOON:068:1,2015-08-01T17:12:00Z,27.2970,-97.4049,4.116,1111122 
TCOON,ioos:station:TCOON:068:1,2015-08-01T18:12:00Z,27.2970,-97.4049,4.115,1111122 
TCOON,ioos:station:TCOON:068:1,2015-08-01T19:12:00Z,27.2970,-97.4049,4.101,1111122 
TCOON,ioos:station:TCOON:068:1,2015-08-01T20:18:00Z,27.2970,-97.4049,4.078,1111122 
TCOON,ioos:station:TCOON:068:1,2015-08-01T21:18:00Z,27.2970,-97.4049,4.073,1111122 
TCOON,ioos:station:TCOON:068:1,2015-08-02T00:48:00Z,27.2970,-97.4049,4.117,1111122 
TCOON,ioos:station:TCOON:068:1,2015-08-02T01:12:00Z,27.2970,-97.4049,4.118,1111122 
TCOON,ioos:station:TCOON:068:1,2015-08-02T02:18:00Z,27.2970,-97.4049,4.12,1111122 
TCOON,ioos:station:TCOON:068:1,2015-08-02T03:18:00Z,27.2970,-97.4049,4.122,1111122 
TCOON,ioos:station:TCOON:068:1,2015-08-02T04:12:00Z,27.2970,-97.4049,4.125,1111122 
TCOON,ioos:station:TCOON:068:1,2015-08-02T05:18:00Z,27.2970,-97.4049,4.132,1111122 
TCOON,ioos:station:TCOON:068:1,2015-08-02T06:24:00Z,27.2970,-97.4049,4.137,1111122 
TCOON,ioos:station:TCOON:068:1,2015-08-02T07:30:00Z,27.2970,-97.4049,4.152,1111122 
TCOON,ioos:station:TCOON:068:1,2015-08-02T08:18:00Z,27.2970,-97.4049,4.153,1111122 
TCOON,ioos:station:TCOON:068:1,2015-08-02T09:18:00Z,27.2970,-97.4049,4.153,1111122 
TCOON,ioos:station:TCOON:068:1,2015-08-03T04:18:00Z,27.2970,-97.4049,4.164,1111122 
TCOON,ioos:station:TCOON:068:1,2015-08-03T05:18:00Z,27.2970,-97.4049,4.159,1111122 
TCOON,ioos:station:TCOON:068:1,2015-08-03T06:18:00Z,27.2970,-97.4049,4.155,1111122 
TCOON,ioos:station:TCOON:068:1,2015-08-04T03:12:00Z,27.2970,-97.4049,4.137,1111122 
TCOON,ioos:station:TCOON:068:1,2015-08-04T04:12:00Z,27.2970,-97.4049,4.152,1111122 
TCOON,ioos:station:TCOON:068:1,2015-08-04T05:12:00Z,27.2970,-97.4049,4.169,1111122 
TCOON,ioos:station:TCOON:068:1,2015-08-04T06:12:00Z,27.2970,-97.4049,4.175,1111122 
TCOON,ioos:station:TCOON:068:1,2015-08-04T07:24:00Z,27.2970,-97.4049,4.174,1111122 
TCOON,ioos:station:TCOON:068:1,2015-08-04T08:12:00Z,27.2970,-97.4049,4.178,1111122 
TCOON,ioos:station:TCOON:068:1,2015-08-04T09:12:00Z,27.2970,-97.4049,4.178,1111122 
TCOON,ioos:station:TCOON:068:1,2015-08-04T10:12:00Z,27.2970,-97.4049,4.164,1111122 
TCOON,ioos:station:TCOON:068:1,2015-08-04T11:18:00Z,27.2970,-97.4049,4.164,1111122 
TCOON,ioos:station:TCOON:068:1,2015-08-04T12:18:00Z,27.2970,-97.4049,4.167,1111122 
TCOON,ioos:station:TCOON:068:1,2015-08-04T13:12:00Z,27.2970,-97.4049,4.17,1111122 
TCOON,ioos:station:TCOON:068:1,2015-08-04T14:12:00Z,27.2970,-97.4049,4.168,1111122 
TCOON,ioos:station:TCOON:068:1,2015-08-04T15:18:00Z,27.2970,-97.4049,4.161,1111122 
TCOON,ioos:station:TCOON:068:1,2015-08-04T20:00:00Z,27.2970,-97.4049,4.113,1111122 
TCOON,ioos:station:TCOON:068:1,2015-08-04T21:18:00Z,27.2970,-97.4049,4.11,1111122 
TCOON,ioos:station:TCOON:068:1,2015-08-04T23:06:00Z,27.2970,-97.4049,4.109,1111122 
TCOON,ioos:station:TCOON:068:1,2015-08-05T00:18:00Z,27.2970,-97.4049,4.107,1111122 
TCOON,ioos:station:TCOON:068:1,2015-08-05T01:18:00Z,27.2970,-97.4049,4.117,1111122 
TCOON,ioos:station:TCOON:068:1,2015-08-05T02:12:00Z,27.2970,-97.4049,4.123,1111122 
TCOON,ioos:station:TCOON:068:1,2015-08-05T03:12:00Z,27.2970,-97.4049,4.135,1111122 
TCOON,ioos:station:TCOON:068:1,2015-08-05T04:12:00Z,27.2970,-97.4049,4.143,1111122 
TCOON,ioos:station:TCOON:068:1,2015-08-05T05:12:00Z,27.2970,-97.4049,4.145,1111122 
TCOON,ioos:station:TCOON:068:1,2015-08-05T06:12:00Z,27.2970,-97.4049,4.154,1111122 
TCOON,ioos:station:TCOON:068:1,2015-08-05T07:24:00Z,27.2970,-97.4049,4.15,1111122 
TCOON,ioos:station:TCOON:068:1,2015-08-05T08:12:00Z,27.2970,-97.4049,4.152,1111122 
TCOON,ioos:station:TCOON:068:1,2015-08-05T09:12:00Z,27.2970,-97.4049,4.154,1111122 
TCOON,ioos:station:TCOON:068:1,2015-08-05T10:12:00Z,27.2970,-97.4049,4.151,1111122 
TCOON,ioos:station:TCOON:068:1,2015-08-05T11:12:00Z,27.2970,-97.4049,4.156,1111122 
TCOON,ioos:station:TCOON:068:1,2015-08-05T12:48:00Z,27.2970,-97.4049,4.153,1111122 
TCOON,ioos:station:TCOON:068:1,2015-08-05T13:12:00Z,27.2970,-97.4049,4.152,1111122 
TCOON,ioos:station:TCOON:068:1,2015-08-05T14:18:00Z,27.2970,-97.4049,4.151,1111122 
TCOON,ioos:station:TCOON:068:1,2015-08-05T15:36:00Z,27.2970,-97.4049,4.145,1111122 
TCOON,ioos:station:TCOON:068:1,2015-08-05T16:12:00Z,27.2970,-97.4049,4.137,1111122 
TCOON,ioos:station:TCOON:068:1,2015-08-05T17:54:00Z,27.2970,-97.4049,4.126,1111122 
TCOON,ioos:station:TCOON:068:1,2015-08-05T18:12:00Z,27.2970,-97.4049,4.124,1111122 
TCOON,ioos:station:TCOON:068:1,2015-08-05T19:12:00Z,27.2970,-97.4049,4.116,1111122 
TCOON,ioos:station:TCOON:068:1,2015-08-05T20:12:00Z,27.2970,-97.4049,4.097,1111122 
TCOON,ioos:station:TCOON:068:1,2015-08-05T21:18:00Z,27.2970,-97.4049,4.079,1111122 
TCOON,ioos:station:TCOON:068:1,2015-08-05T22:24:00Z,27.2970,-97.4049,4.078,1111122 
TCOON,ioos:station:TCOON:068:1,2015-08-05T23:18:00Z,27.2970,-97.4049,4.075,1111122 
TCOON,ioos:station:TCOON:068:1,2015-08-06T00:18:00Z,27.2970,-97.4049,4.082,1111122 
TCOON,ioos:station:TCOON:068:1,2015-08-06T01:18:00Z,27.2970,-97.4049,4.081,1111122 
TCOON,ioos:station:TCOON:068:1,2015-08-06T02:12:00Z,27.2970,-97.4049,4.091,1111122 
TCOON,ioos:station:TCOON:068:1,2015-08-06T03:12:00Z,27.2970,-97.4049,4.112,1111122 
TCOON,ioos:station:TCOON:068:1,2015-08-06T04:12:00Z,27.2970,-97.4049,4.133,1111122 
TCOON,ioos:station:TCOON:068:1,2015-08-06T05:12:00Z,27.2970,-97.4049,4.138,1111122 
TCOON,ioos:station:TCOON:068:1,2015-08-06T06:36:00Z,27.2970,-97.4049,4.128,1111122 
TCOON,ioos:station:TCOON:068:1,2015-08-06T08:06:00Z,27.2970,-97.4049,4.122,1111122 
TCOON,ioos:station:TCOON:068:1,2015-08-06T09:18:00Z,27.2970,-97.4049,4.115,1111122 
TCOON,ioos:station:TCOON:068:1,2015-08-06T11:06:00Z,27.2970,-97.4049,4.129,1111122 
TCOON,ioos:station:TCOON:068:1,2015-08-06T12:18:00Z,27.2970,-97.4049,4.117,1111122 
TCOON,ioos:station:TCOON:068:1,2015-08-06T13:12:00Z,27.2970,-97.4049,4.113,1111122 
TCOON,ioos:station:TCOON:068:1,2015-08-06T14:12:00Z,27.2970,-97.4049,4.118,1111122 
TCOON,ioos:station:TCOON:068:1,2015-08-06T15:24:00Z,27.2970,-97.4049,4.113,1111122 
TCOON,ioos:station:TCOON:068:1,2015-08-06T16:12:00Z,27.2970,-97.4049,4.11,1111122 
TCOON,ioos:station:TCOON:068:1,2015-08-06T17:12:00Z,27.2970,-97.4049,4.101,1111122 
TCOON,ioos:station:TCOON:068:1,2015-08-06T18:12:00Z,27.2970,-97.4049,4.092,1111122 
TCOON,ioos:station:TCOON:068:1,2015-08-06T19:42:00Z,27.2970,-97.4049,4.075,1111122 
TCOON,ioos:station:TCOON:068:1,2015-08-06T20:30:00Z,27.2970,-97.4049,4.061,1111122 
TCOON,ioos:station:TCOON:068:1,2015-08-06T22:30:00Z,27.2970,-97.4049,4.04,1111122 
TCOON,ioos:station:TCOON:068:1,2015-08-06T23:18:00Z,27.2970,-97.4049,4.042,1111122 
TCOON,ioos:station:TCOON:068:1,2015-08-07T00:18:00Z,27.2970,-97.4049,4.047,1111122 
TCOON,ioos:station:TCOON:068:1,2015-08-07T04:30:00Z,27.2970,-97.4049,4.104,1111122 
TCOON,ioos:station:TCOON:068:1,2015-08-07T06:12:00Z,27.2970,-97.4049,4.102,1111122 
TCOON,ioos:station:TCOON:068:1,2015-08-07T07:36:00Z,27.2970,-97.4049,4.105,1111122 
TCOON,ioos:station:TCOON:068:1,2015-08-07T08:24:00Z,27.2970,-97.4049,4.106,1111122 
TCOON,ioos:station:TCOON:068:1,2015-08-07T10:30:00Z,27.2970,-97.4049,4.091,1111122 
TCOON,ioos:station:TCOON:068:1,2015-08-07T11:12:00Z,27.2970,-97.4049,4.093,1111122 
TCOON,ioos:station:TCOON:068:1,2015-08-07T12:12:00Z,27.2970,-97.4049,4.098,1111122 
TCOON,ioos:station:TCOON:068:1,2015-08-07T13:12:00Z,27.2970,-97.4049,4.099,1111122 
TCOON,ioos:station:TCOON:068:1,2015-08-07T14:12:00Z,27.2970,-97.4049,4.104,1111122 
TCOON,ioos:station:TCOON:068:1,2015-08-07T15:12:00Z,27.2970,-97.4049,4.094,1111122 
TCOON,ioos:station:TCOON:068:1,2015-08-07T16:12:00Z,27.2970,-97.4049,4.071,1111122 
TCOON,ioos:station:TCOON:068:1,2015-08-07T17:12:00Z,27.2970,-97.4049,4.061,1111122 
TCOON,ioos:station:TCOON:068:1,2015-08-07T18:12:00Z,27.2970,-97.4049,4.07,1111122 
TCOON,ioos:station:TCOON:068:1,2015-08-07T19:12:00Z,27.2970,-97.4049,4.055,1111122 
TCOON,ioos:station:TCOON:068:1,2015-08-07T20:12:00Z,27.2970,-97.4049,4.038,1111122 
TCOON,ioos:station:TCOON:068:1,2015-08-07T21:18:00Z,27.2970,-97.4049,4.023,1111122 
TCOON,ioos:station:TCOON:068:1,2015-08-07T22:12:00Z,27.2970,-97.4049,4.019,1111122 
TCOON,ioos:station:TCOON:068:1,2015-08-07T23:12:00Z,27.2970,-97.4049,4.023,1111122 
TCOON,ioos:station:TCOON:068:1,2015-08-08T00:12:00Z,27.2970,-97.4049,4.026,1111122 
TCOON,ioos:station:TCOON:068:1,2015-08-08T01:18:00Z,27.2970,-97.4049,4.036,1111122 
TCOON,ioos:station:TCOON:068:1,2015-08-08T02:24:00Z,27.2970,-97.4049,4.057,1111122 
TCOON,ioos:station:TCOON:068:1,2015-08-08T03:18:00Z,27.2970,-97.4049,4.082,1111122 
TCOON,ioos:station:TCOON:068:1,2015-08-08T04:18:00Z,27.2970,-97.4049,4.092,1111122 
TCOON,ioos:station:TCOON:068:1,2015-08-08T05:30:00Z,27.2970,-97.4049,4.088,1111122 
TCOON,ioos:station:TCOON:068:1,2015-08-08T06:30:00Z,27.2970,-97.4049,4.086,1111122 
TCOON,ioos:station:TCOON:068:1,2015-08-08T07:12:00Z,27.2970,-97.4049,4.086,1111122 
TCOON,ioos:station:TCOON:068:1,2015-08-08T08:18:00Z,27.2970,-97.4049,4.084,1111122 
TCOON,ioos:station:TCOON:068:1,2015-08-08T09:18:00Z,27.2970,-97.4049,4.083,1111122 
TCOON,ioos:station:TCOON:068:1,2015-08-08T10:12:00Z,27.2970,-97.4049,4.062,1111122 
TCOON,ioos:station:TCOON:068:1,2015-08-08T11:18:00Z,27.2970,-97.4049,4.085,1111122 
TCOON,ioos:station:TCOON:068:1,2015-08-08T12:12:00Z,27.2970,-97.4049,4.078,1111122 
TCOON,ioos:station:TCOON:068:1,2015-08-08T13:12:00Z,27.2970,-97.4049,4.079,1111122 
TCOON,ioos:station:TCOON:068:1,2015-08-08T14:12:00Z,27.2970,-97.4049,4.087,1111122 
TCOON,ioos:station:TCOON:068:1,2015-08-08T15:12:00Z,27.2970,-97.4049,4.08,1111122 
TCOON,ioos:station:TCOON:068:1,2015-08-08T16:12:00Z,27.2970,-97.4049,4.063,1111122 
TCOON,ioos:station:TCOON:068:1,2015-08-08T17:12:00Z,27.2970,-97.4049,4.06,1111122 
TCOON,ioos:station:TCOON:068:1,2015-08-08T18:12:00Z,27.2970,-97.4049,4.05,1111122 
TCOON,ioos:station:TCOON:068:1,2015-08-08T19:12:00Z,27.2970,-97.4049,4.043,1111122 
TCOON,ioos:station:TCOON:068:1,2015-08-08T20:12:00Z,27.2970,-97.4049,4.031,1111122 
TCOON,ioos:station:TCOON:068:1,2015-08-08T21:12:00Z,27.2970,-97.4049,4.012,1111122 
TCOON,ioos:station:TCOON:068:1,2015-08-08T22:12:00Z,27.2970,-97.4049,4.003,1111122 
TCOON,ioos:station:TCOON:068:1,2015-08-08T23:12:00Z,27.2970,-97.4049,4.001,1111122 
TCOON,ioos:station:TCOON:068:1,2015-08-09T00:12:00Z,27.2970,-97.4049,4.012,1111122 
TCOON,ioos:station:TCOON:068:1,2015-08-09T01:12:00Z,27.2970,-97.4049,4.02,1111122 
TCOON,ioos:station:TCOON:068:1,2015-08-09T02:12:00Z,27.2970,-97.4049,4.049,1111122 
TCOON,ioos:station:TCOON:068:1,2015-08-09T03:12:00Z,27.2970,-97.4049,4.067,1111122 
TCOON,ioos:station:TCOON:068:1,2015-08-09T04:12:00Z,27.2970,-97.4049,4.076,1111122 
TCOON,ioos:station:TCOON:068:1,2015-08-09T05:12:00Z,27.2970,-97.4049,4.065,1111122 
TCOON,ioos:station:TCOON:068:1,2015-08-09T06:12:00Z,27.2970,-97.4049,4.054,1111122 
TCOON,ioos:station:TCOON:068:1,2015-08-09T07:12:00Z,27.2970,-97.4049,4.067,1111122 
TCOON,ioos:station:TCOON:068:1,2015-08-09T08:12:00Z,27.2970,-97.4049,4.087,1111122 
TCOON,ioos:station:TCOON:068:1,2015-08-09T09:12:00Z,27.2970,-97.4049,4.088,1111122 
TCOON,ioos:station:TCOON:068:1,2015-08-09T10:12:00Z,27.2970,-97.4049,4.079,1111122 
TCOON,ioos:station:TCOON:068:1,2015-08-09T11:18:00Z,27.2970,-97.4049,4.075,1111122 
TCOON,ioos:station:TCOON:068:1,2015-08-09T12:18:00Z,27.2970,-97.4049,4.075,1111122 
TCOON,ioos:station:TCOON:068:1,2015-08-09T13:18:00Z,27.2970,-97.4049,4.075,1111122 
TCOON,ioos:station:TCOON:068:1,2015-08-09T14:18:00Z,27.2970,-97.4049,4.077,1111122 
TCOON,ioos:station:TCOON:068:1,2015-08-09T15:18:00Z,27.2970,-97.4049,4.076,1111122 
TCOON,ioos:station:TCOON:068:1,2015-08-09T16:18:00Z,27.2970,-97.4049,4.071,1111122 
TCOON,ioos:station:TCOON:068:1,2015-08-09T17:12:00Z,27.2970,-97.4049,4.063,1111122 
TCOON,ioos:station:TCOON:068:1,2015-08-09T18:12:00Z,27.2970,-97.4049,4.051,1111122 
TCOON,ioos:station:TCOON:068:1,2015-08-09T19:12:00Z,27.2970,-97.4049,4.045,1111122 
TCOON,ioos:station:TCOON:068:1,2015-08-09T20:12:00Z,27.2970,-97.4049,4.033,1111122 
TCOON,ioos:station:TCOON:068:1,2015-08-09T21:12:00Z,27.2970,-97.4049,4.028,1111122 
TCOON,ioos:station:TCOON:068:1,2015-08-09T22:12:00Z,27.2970,-97.4049,4.037,1111122 
TCOON,ioos:station:TCOON:068:1,2015-08-09T23:12:00Z,27.2970,-97.4049,4.03,1111122 
TCOON,ioos:station:TCOON:068:1,2015-08-10T00:12:00Z,27.2970,-97.4049,4.029,1111122 
TCOON,ioos:station:TCOON:068:1,2015-08-10T01:12:00Z,27.2970,-97.4049,4.032,1111122 
TCOON,ioos:station:TCOON:068:1,2015-08-10T02:12:00Z,27.2970,-97.4049,4.045,1111122 
TCOON,ioos:station:TCOON:068:1,2015-08-10T03:12:00Z,27.2970,-97.4049,4.073,1111122 
TCOON,ioos:station:TCOON:068:1,2015-08-10T04:12:00Z,27.2970,-97.4049,4.089,1111122 
TCOON,ioos:station:TCOON:068:1,2015-08-10T05:12:00Z,27.2970,-97.4049,4.091,1111122 
TCOON,ioos:station:TCOON:068:1,2015-08-10T06:18:00Z,27.2970,-97.4049,4.086,1111122 
TCOON,ioos:station:TCOON:068:1,2015-08-10T07:12:00Z,27.2970,-97.4049,4.085,1111122 
TCOON,ioos:station:TCOON:068:1,2015-08-10T08:12:00Z,27.2970,-97.4049,4.083,1111122 
TCOON,ioos:station:TCOON:068:1,2015-08-10T09:12:00Z,27.2970,-97.4049,4.081,1111122 
TCOON,ioos:station:TCOON:068:1,2015-08-10T10:12:00Z,27.2970,-97.4049,4.081,1111122 
TCOON,ioos:station:TCOON:068:1,2015-08-10T11:24:00Z,27.2970,-97.4049,4.076,1111122 
TCOON,ioos:station:TCOON:068:1,2015-08-10T12:18:00Z,27.2970,-97.4049,4.075,1111122 
TCOON,ioos:station:TCOON:068:1,2015-08-10T13:24:00Z,27.2970,-97.4049,4.077,1111122 
TCOON,ioos:station:TCOON:068:1,2015-08-10T14:12:00Z,27.2970,-97.4049,4.081,1111122 
TCOON,ioos:station:TCOON:068:1,2015-08-10T15:12:00Z,27.2970,-97.4049,4.086,1111122 
TCOON,ioos:station:TCOON:068:1,2015-08-10T16:18:00Z,27.2970,-97.4049,4.079,1111122 
TCOON,ioos:station:TCOON:068:1,2015-08-10T17:12:00Z,27.2970,-97.4049,4.076,1111122 
TCOON,ioos:station:TCOON:068:1,2015-08-10T18:24:00Z,27.2970,-97.4049,4.07,1111122 
TCOON,ioos:station:TCOON:068:1,2015-08-10T19:18:00Z,27.2970,-97.4049,4.06,1111122 
TCOON,ioos:station:TCOON:068:1,2015-08-10T20:18:00Z,27.2970,-97.4049,4.044,1111122 
TCOON,ioos:station:TCOON:068:1,2015-08-10T21:18:00Z,27.2970,-97.4049,4.04,1111122 
TCOON,ioos:station:TCOON:068:1,2015-08-10T22:36:00Z,27.2970,-97.4049,4.049,1111122 
TCOON,ioos:station:TCOON:068:1,2015-08-10T23:24:00Z,27.2970,-97.4049,4.062,1111122 
TCOON,ioos:station:TCOON:068:1,2015-08-11T00:18:00Z,27.2970,-97.4049,4.066,1111122 
TCOON,ioos:station:TCOON:068:1,2015-08-11T01:12:00Z,27.2970,-97.4049,4.066,1111122 
TCOON,ioos:station:TCOON:068:1,2015-08-11T02:12:00Z,27.2970,-97.4049,4.072,1111122 
TCOON,ioos:station:TCOON:068:1,2015-08-11T03:18:00Z,27.2970,-97.4049,4.085,1111122 
TCOON,ioos:station:TCOON:068:1,2015-08-11T04:12:00Z,27.2970,-97.4049,4.09,1111122 
TCOON,ioos:station:TCOON:068:1,2015-08-11T05:12:00Z,27.2970,-97.4049,4.092,1111122 
TCOON,ioos:station:TCOON:068:1,2015-08-11T06:18:00Z,27.2970,-97.4049,4.088,1111122 
TCOON,ioos:station:TCOON:068:1,2015-08-11T07:12:00Z,27.2970,-97.4049,4.084,1111122 
TCOON,ioos:station:TCOON:068:1,2015-08-11T08:12:00Z,27.2970,-97.4049,4.084,1111122 
TCOON,ioos:station:TCOON:068:1,2015-08-11T09:12:00Z,27.2970,-97.4049,4.083,1111122 
TCOON,ioos:station:TCOON:068:1,2015-08-11T10:12:00Z,27.2970,-97.4049,4.087,1111122 
TCOON,ioos:station:TCOON:068:1,2015-08-11T11:12:00Z,27.2970,-97.4049,4.092,1111122 
TCOON,ioos:station:TCOON:068:1,2015-08-11T12:12:00Z,27.2970,-97.4049,4.09,1111122 
TCOON,ioos:station:TCOON:068:1,2015-08-11T13:18:00Z,27.2970,-97.4049,4.09,1111122 
TCOON,ioos:station:TCOON:068:1,2015-08-11T14:12:00Z,27.2970,-97.4049,4.091,1111122 
TCOON,ioos:station:TCOON:068:1,2015-08-11T15:18:00Z,27.2970,-97.4049,4.094,1111122 
TCOON,ioos:station:TCOON:068:1,2015-08-11T16:24:00Z,27.2970,-97.4049,4.081,1111122 
TCOON,ioos:station:TCOON:068:1,2015-08-11T17:18:00Z,27.2970,-97.4049,4.082,1111122 
TCOON,ioos:station:TCOON:068:1,2015-08-11T18:18:00Z,27.2970,-97.4049,4.076,1111122 
TCOON,ioos:station:TCOON:068:1,2015-08-11T19:18:00Z,27.2970,-97.4049,4.067,1111122 
TCOON,ioos:station:TCOON:068:1,2015-08-11T20:18:00Z,27.2970,-97.4049,4.062,1111122 
TCOON,ioos:station:TCOON:068:1,2015-08-11T21:18:00Z,27.2970,-97.4049,4.062,1111122 
TCOON,ioos:station:TCOON:068:1,2015-08-11T22:12:00Z,27.2970,-97.4049,4.068,1111122 
TCOON,ioos:station:TCOON:068:1,2015-08-11T23:12:00Z,27.2970,-97.4049,4.074,1111122 
TCOON,ioos:station:TCOON:068:1,2015-08-12T00:12:00Z,27.2970,-97.4049,4.071,1111122 
TCOON,ioos:station:TCOON:068:1,2015-08-12T01:12:00Z,27.2970,-97.4049,4.067,1111122 
TCOON,ioos:station:TCOON:068:1,2015-08-12T02:12:00Z,27.2970,-97.4049,4.075,1111122 
TCOON,ioos:station:TCOON:068:1,2015-08-12T03:12:00Z,27.2970,-97.4049,4.09,1111122 
TCOON,ioos:station:TCOON:068:1,2015-08-12T04:12:00Z,27.2970,-97.4049,4.094,1111122 
TCOON,ioos:station:TCOON:068:1,2015-08-12T05:12:00Z,27.2970,-97.4049,4.094,1111122 
TCOON,ioos:station:TCOON:068:1,2015-08-12T06:12:00Z,27.2970,-97.4049,4.092,1111122 
TCOON,ioos:station:TCOON:068:1,2015-08-12T07:54:00Z,27.2970,-97.4049,4.096,1111122 
TCOON,ioos:station:TCOON:068:1,2015-08-12T08:18:00Z,27.2970,-97.4049,4.095,1111122 
TCOON,ioos:station:TCOON:068:1,2015-08-12T09:12:00Z,27.2970,-97.4049,4.104,1111122 
TCOON,ioos:station:TCOON:068:1,2015-08-12T10:12:00Z,27.2970,-97.4049,4.111,1111122 
TCOON,ioos:station:TCOON:068:1,2015-08-12T11:12:00Z,27.2970,-97.4049,4.109,1111122 
TCOON,ioos:station:TCOON:068:1,2015-08-12T12:18:00Z,27.2970,-97.4049,4.102,1111122 
TCOON,ioos:station:TCOON:068:1,2015-08-12T13:12:00Z,27.2970,-97.4049,4.105,1111122 
TCOON,ioos:station:TCOON:068:1,2015-08-12T14:12:00Z,27.2970,-97.4049,4.098,1111122 
TCOON,ioos:station:TCOON:068:1,2015-08-12T15:12:00Z,27.2970,-97.4049,4.089,1111122 
TCOON,ioos:station:TCOON:068:1,2015-08-12T16:12:00Z,27.2970,-97.4049,4.097,1111122 
TCOON,ioos:station:TCOON:068:1,2015-08-12T17:18:00Z,27.2970,-97.4049,4.102,1111122 
TCOON,ioos:station:TCOON:068:1,2015-08-12T18:12:00Z,27.2970,-97.4049,4.097,1111122 
TCOON,ioos:station:TCOON:068:1,2015-08-12T19:12:00Z,27.2970,-97.4049,4.093,1111122 
TCOON,ioos:station:TCOON:068:1,2015-08-12T20:18:00Z,27.2970,-97.4049,4.081,1111122 
TCOON,ioos:station:TCOON:068:1,2015-08-12T21:36:00Z,27.2970,-97.4049,4.068,1111122 
TCOON,ioos:station:TCOON:068:1,2015-08-12T23:00:00Z,27.2970,-97.4049,4.067,1111122 
TCOON,ioos:station:TCOON:068:1,2015-08-13T00:12:00Z,27.2970,-97.4049,4.07,1111122 
TCOON,ioos:station:TCOON:068:1,2015-08-13T01:18:00Z,27.2970,-97.4049,4.082,1111122 
TCOON,ioos:station:TCOON:068:1,2015-08-13T02:18:00Z,27.2970,-97.4049,4.099,1111122 
TCOON,ioos:station:TCOON:068:1,2015-08-13T03:24:00Z,27.2970,-97.4049,4.109,1111122 
TCOON,ioos:station:TCOON:068:1,2015-08-13T04:12:00Z,27.2970,-97.4049,4.111,1111122 
TCOON,ioos:station:TCOON:068:1,2015-08-13T05:18:00Z,27.2970,-97.4049,4.115,1111122 
TCOON,ioos:station:TCOON:068:1,2015-08-13T06:18:00Z,27.2970,-97.4049,4.114,1111122 
TCOON,ioos:station:TCOON:068:1,2015-08-13T07:48:00Z,27.2970,-97.4049,4.117,1111122 
TCOON,ioos:station:TCOON:068:1,2015-08-13T08:18:00Z,27.2970,-97.4049,4.113,1111122 
TCOON,ioos:station:TCOON:068:1,2015-08-13T09:12:00Z,27.2970,-97.4049,4.108,1111122 
TCOON,ioos:station:TCOON:068:1,2015-08-13T10:12:00Z,27.2970,-97.4049,4.106,1111122 
TCOON,ioos:station:TCOON:068:1,2015-08-13T11:12:00Z,27.2970,-97.4049,4.11,1111122 
TCOON,ioos:station:TCOON:068:1,2015-08-13T12:12:00Z,27.2970,-97.4049,4.108,1111122 
TCOON,ioos:station:TCOON:068:1,2015-08-13T13:12:00Z,27.2970,-97.4049,4.114,1111122 
TCOON,ioos:station:TCOON:068:1,2015-08-13T14:12:00Z,27.2970,-97.4049,4.112,1111122 
TCOON,ioos:station:TCOON:068:1,2015-08-13T15:12:00Z,27.2970,-97.4049,4.107,1111122 
TCOON,ioos:station:TCOON:068:1,2015-08-13T16:12:00Z,27.2970,-97.4049,4.102,1111122 
TCOON,ioos:station:TCOON:068:1,2015-08-13T17:12:00Z,27.2970,-97.4049,4.097,1111122 
TCOON,ioos:station:TCOON:068:1,2015-08-13T18:12:00Z,27.2970,-97.4049,4.1,1111122 
TCOON,ioos:station:TCOON:068:1,2015-08-13T19:12:00Z,27.2970,-97.4049,4.1,1111122 
TCOON,ioos:station:TCOON:068:1,2015-08-13T20:18:00Z,27.2970,-97.4049,4.093,1111122 
TCOON,ioos:station:TCOON:068:1,2015-08-13T21:12:00Z,27.2970,-97.4049,4.085,1111122 
TCOON,ioos:station:TCOON:068:1,2015-08-13T22:24:00Z,27.2970,-97.4049,4.078,1111122 
TCOON,ioos:station:TCOON:068:1,2015-08-13T23:12:00Z,27.2970,-97.4049,4.078,1111122 
TCOON,ioos:station:TCOON:068:1,2015-08-14T00:12:00Z,27.2970,-97.4049,4.077,1111122 
TCOON,ioos:station:TCOON:068:1,2015-08-14T01:12:00Z,27.2970,-97.4049,4.085,1111122 
TCOON,ioos:station:TCOON:068:1,2015-08-14T02:12:00Z,27.2970,-97.4049,4.101,1111122 
TCOON,ioos:station:TCOON:068:1,2015-08-14T03:12:00Z,27.2970,-97.4049,4.103,1111122 
TCOON,ioos:station:TCOON:068:1,2015-08-14T04:18:00Z,27.2970,-97.4049,4.103,1111122 
TCOON,ioos:station:TCOON:068:1,2015-08-14T05:18:00Z,27.2970,-97.4049,4.103,1111122 
TCOON,ioos:station:TCOON:068:1,2015-08-14T06:18:00Z,27.2970,-97.4049,4.109,1111122 
TCOON,ioos:station:TCOON:068:1,2015-08-14T08:00:00Z,27.2970,-97.4049,4.106,1111122 
TCOON,ioos:station:TCOON:068:1,2015-08-14T09:12:00Z,27.2970,-97.4049,4.101,1111122 
TCOON,ioos:station:TCOON:068:1,2015-08-14T10:12:00Z,27.2970,-97.4049,4.103,1111122 
TCOON,ioos:station:TCOON:068:1,2015-08-14T11:12:00Z,27.2970,-97.4049,4.105,1111122 
TCOON,ioos:station:TCOON:068:1,2015-08-14T12:12:00Z,27.2970,-97.4049,4.102,1111122 
TCOON,ioos:station:TCOON:068:1,2015-08-14T13:12:00Z,27.2970,-97.4049,4.101,1111122 
TCOON,ioos:station:TCOON:068:1,2015-08-14T14:12:00Z,27.2970,-97.4049,4.106,1111122 
TCOON,ioos:station:TCOON:068:1,2015-08-14T15:12:00Z,27.2970,-97.4049,4.101,1111122 
TCOON,ioos:station:TCOON:068:1,2015-08-14T16:12:00Z,27.2970,-97.4049,4.099,1111122 
TCOON,ioos:station:TCOON:068:1,2015-08-14T17:12:00Z,27.2970,-97.4049,4.099,1111122 
TCOON,ioos:station:TCOON:068:1,2015-08-14T18:12:00Z,27.2970,-97.4049,4.096,1111122 
TCOON,ioos:station:TCOON:068:1,2015-08-14T19:12:00Z,27.2970,-97.4049,4.086,1111122 
TCOON,ioos:station:TCOON:068:1,2015-08-14T20:12:00Z,27.2970,-97.4049,4.078,1111122 
TCOON,ioos:station:TCOON:068:1,2015-08-14T21:12:00Z,27.2970,-97.4049,4.073,1111122 
TCOON,ioos:station:TCOON:068:1,2015-08-14T22:18:00Z,27.2970,-97.4049,4.081,1111122 
TCOON,ioos:station:TCOON:068:1,2015-08-14T23:12:00Z,27.2970,-97.4049,4.082,1111122 
TCOON,ioos:station:TCOON:068:1,2015-08-15T00:12:00Z,27.2970,-97.4049,4.08,1111122 
TCOON,ioos:station:TCOON:068:1,2015-08-15T01:12:00Z,27.2970,-97.4049,4.08,1111122 
TCOON,ioos:station:TCOON:068:1,2015-08-15T02:12:00Z,27.2970,-97.4049,4.094,1111122 
TCOON,ioos:station:TCOON:068:1,2015-08-15T03:12:00Z,27.2970,-97.4049,4.105,1111122 
TCOON,ioos:station:TCOON:068:1,2015-08-15T04:12:00Z,27.2970,-97.4049,4.113,1111122 
TCOON,ioos:station:TCOON:068:1,2015-08-15T05:12:00Z,27.2970,-97.4049,4.12,1111122 